Richmond International Airport Airport (RIC)

 

Airport Diagram
Current Weather/Forecast (VFR Conditions)
METAR KRIC 301354Z 26011KT 10SM CLR 17/11 A2991 RMK AO2 SLP132 T01720106
TAF KRIC 301140Z 3012/0112 26008KT P6SM SKC FM301500 26011G18KT P6SM SKC FM302200 22005KT P6SM SKC

All Charts
General
Chart Name Download
AIRPORT DIAGRAM
TAKEOFF MINIMUMS
ALTERNATE MINIMUMS
HOT SPOT

Departures
Chart Name Download
COLIN EIGHT
KALLI SIX (RNAV)
KALLI SIX (RNAV), CONT.1
LUCYL SIX (RNAV)
LUCYL SIX (RNAV), CONT.1
READE SEVEN
READE SEVEN, CONT.1

Arrivals
Chart Name Download
DUCXS FIVE (RNAV)
POWTN FIVE (RNAV)
SPIDR FOUR (RNAV)

Approaches
Chart Name Download
ILS OR LOC RWY 02
ILS OR LOC RWY 16
ILS OR LOC RWY 34
ILS RWY 34 (SA CAT I)
ILS RWY 34 (CAT II - III)
RNAV (RNP) Y RWY 02
RNAV (RNP) Y RWY 16
RNAV (RNP) Y RWY 20
RNAV (RNP) Y RWY 34
RNAV (GPS) Z RWY 02
RNAV (GPS) Z RWY 16
RNAV (GPS) Z RWY 20
RNAV (GPS) Z RWY 34
VOR RWY 02
VOR RWY 16
VOR RWY 20
VOR RWY 34


Inbound Traffic (Arrivals)

No inbound traffic.


Outbound Traffic (Departures)

No outbound traffic.